This is the latest recevied weather packets stored in our database for station/object W7TTE. If no packets are shown the sender has not sent any weather packets the latest 10 day(s).
| Time | Temp. | Humidity | Pressure | Rain* | Wind** | Luminosity | Snow |
|---|---|---|---|---|---|---|---|
| 1777680320 | 32.78° C | 18% | 1010.4 hPa | 0 mm | - | 210 W/m² | - |
| 1777680017 | 33.33° C | 17% | 1010.6 hPa | 0 mm | - | 225 W/m² | - |
| 1777679713 | 33.33° C | 17% | 1010.5 hPa | 0 mm | - | 240 W/m² | - |
| 1777679409 | 33.33° C | 18% | 1010.5 hPa | 0 mm | - | 256 W/m² | - |
| 1777679104 | 32.78° C | 18% | 1010.5 hPa | 0 mm | - | 271 W/m² | - |
| 1777678803 | 32.22° C | 18% | 1010.9 hPa | 0 mm | - | 287 W/m² | - |
| 1777678501 | 32.78° C | 18% | 1010.7 hPa | 0 mm | - | 303 W/m² | - |
| 1777678196 | 32.78° C | 17% | 1010.6 hPa | 0 mm | - | 318 W/m² | - |
| 1777677893 | 32.78° C | 17% | 1010.5 hPa | 0 mm | - | 335 W/m² | - |
| 1777677590 | 32.22° C | 18% | 1010.7 hPa | 0 mm | - | 350 W/m² | - |
| 1777677289 | 32.78° C | 18% | 1010.9 hPa | 0 mm | - | 365 W/m² | - |
| 1777676986 | 32.78° C | 19% | 1010.8 hPa | 0 mm | - | 382 W/m² | - |
| 1777676685 | 33.33° C | 18% | 1010.7 hPa | 0 mm | - | 396 W/m² | - |
| 1777676383 | 33.33° C | 19% | 1010.9 hPa | 0 mm | - | 411 W/m² | - |
| 1777676080 | 32.78° C | 20% | 1011 hPa | 0 mm | - | 426 W/m² | - |
| 1777675776 | 32.22° C | 21% | 1011 hPa | 0 mm | - | 443 W/m² | - |
| 1777675473 | 32.78° C | 22% | 1011 hPa | 0 mm | - | 456 W/m² | - |
| 1777675170 | 32.78° C | 22% | 1011.2 hPa | 0 mm | - | 472 W/m² | - |
| 1777674866 | 32.78° C | 22% | 1010.9 hPa | 0 mm | - | 490 W/m² | - |
| 1777674563 | 33.33° C | 21% | 1011.1 hPa | 0 mm | - | 504 W/m² | - |
| 1777674261 | 32.78° C | 22% | 1011.4 hPa | 0 mm | - | 521 W/m² | - |
| 1777673956 | 32.22° C | 22% | 1011.3 hPa | 0 mm | - | 530 W/m² | - |
| 1777673653 | 31.67° C | 23% | 1011.4 hPa | 0 mm | - | 545 W/m² | - |
| 1777673351 | 32.78° C | 23% | 1011.4 hPa | 0 mm | - | 558 W/m² | - |
| 1777673049 | 32.22° C | 24% | 1011.5 hPa | 0 mm | - | 571 W/m² | - |
* Rain latest hour (hover to see other rain measurements)
** Current wind speed in m/s (hover to see current wind gust speed)